AirNav   ATP
 
 312 users online  

44GA S&S Flying Service Airport
Pineview, Georgia, USA

GOING TO PINEVIEW?


FAA INFORMATION EFFECTIVE 24 MAY 2018

Location

FAA Identifier: 44GA
Lat/Long: 32-06-15.6150N / 083-28-58.6060W
32-06.260250N / 083-28.976767W
32.1043375 / -83.4829461
(estimated)
Elevation: 260 ft. / 79 m (estimated)
Variation: 02W (1986)
From city: 1 mile E of PINEVIEW, GA
Time zone: UTC -4 (UTC -5 during Standard Time)
Zip code: 31071

Airport Operations

Airport use: Private use. Permission required prior to landing
Activation date: 03/1986
Control tower: no
ARTCC: JACKSONVILLE CENTER
FSS: MACON FLIGHT SERVICE STATION
Attendance: MON-SAT 0800-1700
Wind indicator: yes
Segmented circle: no

Airport Communications

WX AWOS-3PT at CKF (16 nm SW): 119.325 (229-276-2669)
WX AWOS-3 at EZM (19 nm E): 119.425 (478-374-9979)

Nearby radio navigation aids

VOR radial/distance  VOR name  Freq  Var
VNAr173/6.6VIENNA VORTAC116.5001E
MCNr166/36.2MACON VORTAC114.2001E

 
NDB name  Hdg/Dist  Freq  Var  ID
EASTMAN268/16.836604WEZM . --.. --
CONEY078/20.340006WOHY --- .... -.--
MC RAE274/30.528003WMQW -- --.- .--
MONTEZUMA125/30.942604WIZS .. --.. ...
FITZGERALD347/31.136205WSUR ... ..- .-.
LINDBERGH102/32.024204WLKG .-.. -.- --.

Airport Services

Runway Information

Runway 18/36

Dimensions: 3000 x 100 ft. / 914 x 30 m
Surface: turf
RUNWAY 18  RUNWAY 36
Traffic pattern: leftleft
Obstructions: 35 ft. trees, 10 ft. from runway35 ft. pline, 1 ft. from runway

Airport Ownership and Management from official FAA records

Ownership: Privately-owned
Owner: J.D. SCARBOROUGH
PO BOX 28
PINEVIEW, GA 31071
Phone 912-624-2703
Manager: J.D. SCARBOROUGH
PO BOX 28
PINEVIEW, GA 31071
Phone 912-624-2703

Airport Operational Statistics

Aircraft based on the field: 2
Single engine airplanes: 2
    

Instrument Procedures

There are no published instrument procedures at 44GA.

Some nearby airports with instrument procedures:

KCKF - Crisp County-Cordele Airport (16 nm SW)
KEZM - Heart of Georgia Regional Airport (19 nm E)
48A - Cochran Airport (21 nm NE)
75J - Turner County Airport (26 nm S)
KFZG - Fitzgerald Municipal Airport (27 nm SE)
 
Loc | Ops | Rwys | IFR | FBO | Links
Com | Nav | Svcs | Stats | Notes

AirNav Hotels Sweepstakes
 
Area around 44GA (S&S Flying Service Airport)
 
Road maps at: MapQuest Bing Google
 
Aerial photo
No photo
 
Sectional chart

 
Airport distance calculator
Flying to S&S Flying Service Airport? Find the distance to fly.

From to 44GA

Sunrise and sunset
Times for 28-May-2018
 Local
(UTC-4)
 Zulu
(UTC)
Morning civil twilight06:0310:03
Sunrise06:3110:31
Sunset20:3200:32
Evening civil twilight20:5900:59

Current date and time
Zulu (UTC)  28-May-2018 07:50:51
Local (UTC-4)  28-May-2018 03:50:51
 
METAR
KCKF 
16nm SW 
280735Z AUTO 07004KT 5SM +RA OVC006 22/22 A2980 RMK AO2 T02210217
KEZM 
19nm E 
280735Z AUTO 07004KT 10SM OVC004 23/19 A2984 RMK AO2 T02310190
KFZG 
27nm SE 
280735Z AUTO 09003KT 7SM OVC005 23/23 A2982 RMK AO2 T02330233
KPXE 
28nm NW 
280735Z AUTO 06008KT 10SM OVC006 22/21 A2982 RMK AO2 P0001 T02180214
KWRB 
31nm N 
280727Z AUTO 04004KT 10SM -RA OVC006 M A2982 RMK AO2 DZB21E22RAB22 CIG 006V008 SLPNO ALSTG ESTMD $
TAF
KMCN 
36nm N 
280541Z 2806/2906 06008KT 6SM -SHRA OVC011 FM280800 07008KT P6SM VCSH OVC007 FM281500 09008G17KT P6SM VCSH BKN012 FM281800 11012G20KT 6SM -SHRA OVC030 PROB30 2818/2824 4SM -TSRA BKN015 OVC025CB FM290100 09011G19KT 5SM SHRA SCT005 OVC015
NOTAMs
Click for the latest NOTAMs
NOTAMs are issued by the DoD/FAA and will open in a separate window not controlled by AirNav.

 

 
 

Would you like to see your business listed on this page?

 If your business provides an interesting product or service to pilots, flight crews, aircraft, or users of the S&S Flying Service Airport, you should consider listing it here.  To start the listing process, click on the button below
 
Add a business
 

Other Pages about S&S Flying Service Airport

Update a link
 
Copyright © AirNav, LLC. All rights reserved. Privacy Policy  Contact